When you browse on this site, cookies collect data to enhance your experience and personalize the content and advertising you see.
Visit our Privacy Policy to learn more. By continuing to use the site, you agree to this use of cookies and data.
  • In Hungary
  • List of Countries
  • For 7 days
  • Water Temperature
  • Satellite Maps
  • Weather Map
  • News
  • Weather Widgets
  • user-avatar
    Login

    Hourly Weather Chatrapur

    Today, 18 November, Sunday

    Time Temperature Precipitation Wind Pressure Humidity
    00:00 +25°C° 0 mm 1 mps 758 mmHg 91%
    01:00 +24°C° 0 mm 1 mps 758 mmHg 91%
    02:00 +24°C° 0 mm 1 mps 757 mmHg 91%
    03:00 +24°C° 0 mm 1 mps 757 mmHg 92%
    04:00 +24°C° 0 mm 1 mps 757 mmHg 91%
    05:00 +24°C° 0 mm 1 mps 758 mmHg 91%
    06:00 +24°C° 0 mm 1 mps 758 mmHg 91%
    07:00 +26°C° 0 mm 1 mps 758 mmHg 83%
    08:00 +27°C° 0 mm 1 mps 758 mmHg 75%
    09:00 +29°C° 0 mm 1 mps 759 mmHg 68%
    10:00 +31°C° 0 mm 1 mps 759 mmHg 61%
    11:00 +32°C° 0 mm 1 mps 758 mmHg 54%
    12:00 +34°C° 0 mm 1 mps 758 mmHg 48%
    13:00 +34°C° 0 mm 2 mps 758 mmHg 49%
    14:00 +34°C° 0 mm 3 mps 757 mmHg 50%
    15:00 +34°C° 0 mm 3 mps 756 mmHg 51%
    16:00 +31°C° 0 mm 3 mps 756 mmHg 60%
    17:00 +29°C° 0 mm 3 mps 757 mmHg 69%
    18:00 +27°C° 0 mm 3 mps 757 mmHg 77%
    19:00 +27°C° 0 mm 3 mps 757 mmHg 79%
    20:00 +26°C° 0 mm 3 mps 758 mmHg 81%
    21:00 +26°C° 0 mm 2 mps 758 mmHg 83%
    22:00 +26°C° 0 mm 2 mps 758 mmHg 84%
    23:00 +25°C° 0 mm 2 mps 759 mmHg 85%

    Tomorrow, 19 November, Monday

    Time Temperature Precipitation Wind Pressure Humidity
    00:00 +25°C° 0 mm 1 mps 759 mmHg 86%
    01:00 +25°C° 0 mm 1 mps 758 mmHg 87%
    02:00 +24°C° 0 mm 1 mps 758 mmHg 88%
    03:00 +24°C° 0 mm 1 mps 758 mmHg 90%
    04:00 +24°C° 0 mm 1 mps 758 mmHg 90%
    05:00 +24°C° 0 mm 1 mps 758 mmHg 91%
    06:00 +23°C° 0 mm 1 mps 758 mmHg 91%
    07:00 +25°C° 0 mm 1 mps 759 mmHg 84%
    08:00 +27°C° 0 mm 1 mps 759 mmHg 76%
    09:00 +29°C° 0 mm 1 mps 760 mmHg 68%
    10:00 +30°C° 0 mm 1 mps 760 mmHg 62%
    11:00 +32°C° 0 mm 1 mps 760 mmHg 55%
    12:00 +33°C° 0 mm 1 mps 760 mmHg 48%
    13:00 +34°C° 0 mm 2 mps 759 mmHg 48%
    14:00 +34°C° 0 mm 2 mps 758 mmHg 48%
    15:00 +34°C° 0 mm 2 mps 758 mmHg 48%
    16:00 +31°C° 0 mm 2 mps 758 mmHg 56%
    17:00 +29°C° 0 mm 2 mps 758 mmHg 64%
    18:00 +27°C° 0 mm 2 mps 758 mmHg 72%
    19:00 +27°C° 0 mm 2 mps 758 mmHg 74%
    20:00 +26°C° 0 mm 2 mps 759 mmHg 77%
    21:00 +26°C° 0 mm 2 mps 760 mmHg 79%
    22:00 +26°C° 0 mm 2 mps 760 mmHg 80%
    23:00 +25°C° 0 mm 2 mps 760 mmHg 81%

    Day after tomorrow, 20 November, Tuesday

    Time Temperature Precipitation Wind Pressure Humidity
    00:00 +25°C° 0 mm 1 mps 760 mmHg 82%
    01:00 +25°C° 0 mm 1 mps 759 mmHg 83%
    02:00 +24°C° 0 mm 1 mps 759 mmHg 84%
    03:00 +24°C° 0 mm 1 mps 758 mmHg 85%
    04:00 +24°C° 0 mm 1 mps 759 mmHg 86%
    05:00 +24°C° 0 mm 1 mps 759 mmHg 86%
    06:00 +23°C° 0 mm 1 mps 759 mmHg 87%
    07:00 +25°C° 0 mm 1 mps 759 mmHg 80%
    08:00 +27°C° 0 mm 1 mps 760 mmHg 73%
    09:00 +28°C° 0 mm 1 mps 761 mmHg 66%
    10:00 +30°C° 0 mm 1 mps 760 mmHg 61%
    11:00 +31°C° 0 mm 1 mps 760 mmHg 56%
    12:00 +33°C° 0 mm 1 mps 759 mmHg 51%
    13:00 +32°C° 0 mm 1 mps 759 mmHg 51%
    14:00 +32°C° 0 mm 1 mps 758 mmHg 51%
    15:00 +32°C° 0 mm 1 mps 757 mmHg 51%
    16:00 +30°C° 0 mm 2 mps 757 mmHg 58%
    17:00 +29°C° 0 mm 2 mps 757 mmHg 65%
    18:00 +27°C° 0 mm 2 mps 758 mmHg 71%
    19:00 +27°C° 0 mm 2 mps 758 mmHg 74%
    20:00 +26°C° 0 mm 2 mps 759 mmHg 76%
    21:00 +26°C° 0 mm 2 mps 760 mmHg 79%
    22:00 +26°C° 0 mm 2 mps 759 mmHg 80%
    23:00 +25°C° 0 mm 2 mps 759 mmHg 81%

    21 November, Wednesday

    Time Temperature Precipitation Wind Pressure Humidity
    00:00 +25°C° 0 mm 2 mps 759 mmHg 82%
    01:00 +25°C° 0 mm 2 mps 759 mmHg 82%
    02:00 +25°C° 0 mm 2 mps 758 mmHg 83%
    03:00 +24°C° 0 mm 2 mps 758 mmHg 83%
    04:00 +24°C° 0 mm 1 mps 758 mmHg 84%
    05:00 +24°C° 0 mm 1 mps 758 mmHg 84%
    06:00 +23°C° 0 mm 1 mps 758 mmHg 85%
    07:00 +25°C° 0 mm 1 mps 759 mmHg 78%
    08:00 +27°C° 0 mm 1 mps 760 mmHg 71%
    09:00 +29°C° 0 mm 1 mps 760 mmHg 63%
    10:00 +30°C° 0 mm 1 mps 760 mmHg 57%
    11:00 +32°C° 0 mm 1 mps 760 mmHg 52%
    12:00 +33°C° 0 mm 1 mps 759 mmHg 46%
    13:00 +33°C° 0 mm 1 mps 759 mmHg 46%
    14:00 +34°C° 0 mm 2 mps 758 mmHg 46%
    15:00 +34°C° 0 mm 2 mps 757 mmHg 46%
    16:00 +31°C° 0 mm 2 mps 758 mmHg 54%
    17:00 +29°C° 0 mm 2 mps 758 mmHg 62%
    18:00 +27°C° 0 mm 2 mps 758 mmHg 71%
    19:00 +27°C° 0 mm 2 mps 759 mmHg 73%
    20:00 +26°C° 0 mm 2 mps 759 mmHg 76%
    21:00 +26°C° 0 mm 1 mps 760 mmHg 79%
    22:00 +25°C° 0 mm 1 mps 760 mmHg 80%
    23:00 +25°C° 0 mm 1 mps 760 mmHg 82%

    22 November, Thursday

    Time Temperature Precipitation Wind Pressure Humidity
    00:00 +25°C° 0 mm 1 mps 760 mmHg 84%
    01:00 +24°C° 0 mm 1 mps 759 mmHg 84%
    02:00 +24°C° 0 mm 1 mps 759 mmHg 85%
    03:00 +24°C° 0 mm 1 mps 758 mmHg 86%
    04:00 +24°C° 0 mm 1 mps 759 mmHg 87%
    05:00 +23°C° 0 mm 2 mps 759 mmHg 87%
    06:00 +23°C° 0 mm 2 mps 759 mmHg 87%
    07:00 +25°C° 0 mm 2 mps 760 mmHg 81%
    08:00 +26°C° 0 mm 2 mps 760 mmHg 74%
    09:00 +28°C° 0 mm 2 mps 761 mmHg 67%
    10:00 +30°C° 0 mm 2 mps 761 mmHg 60%
    11:00 +31°C° 0 mm 2 mps 760 mmHg 52%
    12:00 +34°C° 0 mm 2 mps 760 mmHg 45%
    13:00 +34°C° 0 mm 2 mps 759 mmHg 44%
    14:00 +34°C° 0 mm 3 mps 758 mmHg 43%
    15:00 +34°C° 0 mm 3 mps 758 mmHg 43%
    16:00 +31°C° 0 mm 3 mps 758 mmHg 51%
    17:00 +29°C° 0 mm 3 mps 758 mmHg 59%
    18:00 +27°C° 0 mm 3 mps 759 mmHg 67%
    19:00 +26°C° 0 mm 3 mps 759 mmHg 69%
    20:00 +25°C° 0 mm 2 mps 760 mmHg 71%
    21:00 +25°C° 0 mm 1 mps 760 mmHg 73%
    22:00 +24°C° 0 mm 1 mps 760 mmHg 75%
    23:00 +24°C° 0 mm 1 mps 760 mmHg 76%

    23 November, Friday

    Time Temperature Precipitation Wind Pressure Humidity
    00:00 +24°C° 0 mm 1 mps 760 mmHg 78%
    01:00 +23°C° 0 mm 1 mps 760 mmHg 79%
    02:00 +23°C° 0 mm 1 mps 760 mmHg 80%
    03:00 +23°C° 0 mm 1 mps 759 mmHg 81%
    04:00 +23°C° 0 mm 1 mps 759 mmHg 82%
    05:00 +22°C° 0 mm 1 mps 760 mmHg 82%
    06:00 +22°C° 0 mm 1 mps 760 mmHg 83%
    07:00 +24°C° 0 mm 1 mps 760 mmHg 75%
    08:00 +26°C° 0 mm 1 mps 761 mmHg 68%
    09:00 +28°C° 0 mm 1 mps 761 mmHg 60%
    10:00 +29°C° 0 mm 1 mps 761 mmHg 53%
    11:00 +31°C° 0 mm 1 mps 760 mmHg 46%
    12:00 +32°C° 0 mm 1 mps 760 mmHg 40%
    13:00 +33°C° 0 mm 1 mps 759 mmHg 38%
    14:00 +34°C° 0 mm 2 mps 759 mmHg 37%
    15:00 +34°C° 0 mm 2 mps 758 mmHg 36%
    16:00 +31°C° 0 mm 2 mps 758 mmHg 46%
    17:00 +28°C° 0 mm 2 mps 758 mmHg 56%
    18:00 +26°C° 0 mm 2 mps 758 mmHg 65%
    19:00 +26°C° 0 mm 2 mps 759 mmHg 68%
    20:00 +25°C° 0 mm 2 mps 760 mmHg 71%
    21:00 +24°C° 0 mm 1 mps 760 mmHg 74%
    22:00 +24°C° 0 mm 1 mps 760 mmHg 74%
    23:00 +23°C° 0 mm 1 mps 760 mmHg 74%
    Show more